Showing default

BRITE TORONTO, 40020

Orbit data source: Space-Track

BRITE TORONTO, 40020 is a Canadian payload satellite in SSO that was launched on Thu, 19 Jun 2014 UTC via a DNEPR launch vehicle from the Orenburg, Russia (OREN). Payload-class satellites include a variety of spacecraft equipped with specific instruments for various scientific and technological missions. These include communications satellites like Starlink; space stations such as the ISS; scientific satellites like the Hubble; Earth observation satellites from companies like Planet Labs, Umbra, and HawkEye 360; GPS; miniature CubeSats for education and research; and military/defense satellites.

Loading next visibility...
Identifier
40020, 2014-033L
Orbit
SSO
Country
Flag of CACA
Related business
Manufacturer
UTIAS-SFL
Mission
Operational Amateur Astronomy
Bus & Motor
GNB, Unknown motor
Mass
7 kg wet, 7 kg dry
Launch date (UTC)
2014-06-19 (12 years ago)
Launch vehicle
DNEPR
Launch site
Orenburg, Russia (OREN)
Object type
Payload
Rocket body
Debris
Shape & HBR
Box, 0.1 m
Radar Cross Section
0.060 m², Medium (>0.1 m² and < 1m²)

Expand to show TLE details & history
Last TLE update: 2 days ago

TLE from 2 days ago
0 BRITE TORONTO
1 40020U 14033L   26171.36706416  .00000559  00000-0  91945-4 0  9998
2 40020  97.9744 300.2364 0077215 266.6473  92.5899 14.72680489642689
Epoch: 2026-06-20T08:48Z
TLE epoch observation values (Epoch: 2026-06-20T08:48:34.343Z)
Latitude
-0.00008°
Longitude
-100.48939°
Altitude
658.405 km
Speed
7.527 km/s
True Right ascension
20h 00m 56s
True Declination
0° 00' 00"
Sunlit
Object was in full shadow at epoch
Visualization orbit readout
Latitude
Unknown
Longitude
Unknown
Altitude
Unknown
Speed
Unknown
Apparent Right ascension
Unknown
Apparent Declination
Unknown
Sunlit
N/A
Visualization observer readout
Local Sidereal Time
21:43:11
Azimuth
Unknown
Elevation
Unknown
Doppler factor
Unknown
Orbital elements
Apogee altitude
703.842 km
Perigee altitude
595.313 km
Semi-major axis
7,027.715 km
Eccentricity
0.00772
Inclination
97.9744°
RAAN
300.2364°
Arg. of periapsis
266.6473°
True anomaly
93.47339°
Mean anomaly
92.5899°
Eccentric anomaly
93.03169°
Mean motion
3.68402 °/min
Orbital period
97.72 mins
BSTAR
0.000091945
Loading maneuver chart data...
Computing Atmospheric mass density...
Loading historical data...
Loading historical data...
Loading historical data...
Loading historical data...
Loading historical data...
Loading historical data...
Loading historical data...

Documentation

Showing up to 5 results
|